Dewpoint
41 39 37 36 35 35 36 36 36 36 39 42 42 41 41 43 45 45 44 44 43 42 41 40 40 40 40 40 41 40 40 40 37 34 36 36 36 37 37 38 38 37 35
38 37 36 35 34 33 32 32 32 32 32 32 32 32 33 35 37 39 39 39 39 38 38 38 38 38 38 38 37 36 36 36 37 34 34 34 34 35 35 34 33 30 30
36 35 35 34 34 33 33 33 33 33 33 34 34 34 34 35 35 36 36 36 36 37 37 37 37 36 36 36 35 35 34 34 34 34 31 34 33 32 31 31 30 29 27
36 36 35 35 35 35 35 35 35 35 35 35 35 35 35 35 35 35 35 34 35 35 35 35 36 35 35 34 34 34 33 32 32 32 31 31 31 30 30 26 25 25 23
36 36 36 36 36 36 36 36 36 36 36 36 36 36 35 35 34 34 34 34 34 34 36 36 36 37 37 35 33 33 34 33 32 31 30 30 27 26 24 24 23 24 23
36 36 36 36 36 36 36 35 35 36 36 36 35 35 35 35 38 37 34 33 33 33 32 33 33 33 34 37 37 35 33 32 28 28 26 26 25 23 23 23 23 21 20
35 35 35 35 35 35 34 34 34 34 35 35 36 37 36 36 37 37 35 28 27 31 30 25 29 30 30 29 29 29 29 29 29 27 24 24 23 22 21 18 22 18 21
35 35 36 35 35 34 34 34 33 33 34 34 34 34 35 37 37 36 34 27 26 25 24 24 25 25 26 28 27 27 26 26 25 27 26 25 23 23 24 22 23 24 24
35 36 36 36 35 34 33 33 33 33 33 33 32 30 28 29 32 31 28 25 25 25 26 25 25 25 29 29 24 24 22 21 23 28 26 27 28 29 28 25 21 18 18
35 36 36 36 35 34 33 33 33 30 27 27 26 26 29 26 31 30 27 25 23 24 24 22 26 25 25 25 23 22 20 19 22 25 23 21 23 25 29 24 22 12 13
35 35 36 35 35 34 33 33 31 24 25 23 26 25 26 27 27 28 27 22 21 20 20 20 21 25 23 23 24 21 21 21 25 21 20 21 23 24 26 26 24 14 21
35 35 35 34 34 33 33 27 27 26 24 23 23 24 25 25 27 25 25 26 23 19 20 22 22 24 21 22 22 24 25 25 21 20 22 22 22 22 22 23 25 27 28
34 34 34 34 32 31 28 26 25 21 19 18 19 20 20 23 22 26 25 24 24 21 21 23 24 19 20 21 23 24 24 20 20 20 20 18 19 18 22 27 28 28 28
33 33 33 32 31 28 27 24 19 16 13 12 14 15 16 18 21 23 22 22 23 22 23 21 19 18 20 21 21 20 20 20 20 19 18 20 24 24 24 26 24 25 24
34 33 32 30 29 25 19 15 12 12 13 12 14 15 16 18 22 25 24 22 23 23 21 17 13 15 18 19 20 21 22 22 20 21 24 24 23 24 24 24 24 23 22
33 31 29 22 17 20 17 22 25 27 25 23 23 20 20 22 25 25 23 23 23 22 18 13 14 18 19 19 20 21 21 22 23 23 24 24 23 23 22 17 14 15 19
32 24 20 16 18 21 22 23 23 24 25 24 25 25 24 24 25 24 22 22 23 21 13 15 17 18 18 19 18 16 21 23 25 24 23 23 23 22 21 16 14 14 17
26 26 18 14 15 19 21 22 21 20 18 15 22 21 23 22 23 24 23 21 13 14 17 15 15 17 18 16 16 16 22 23 24 23 23 23 23 18 16 14 14 14 16
23 22 18 17 17 20 20 21 21 19 17 10 12 18 21 23 22 22 24 20 16 15 16 16 17 17 16 15 15 15 23 23 23 23 23 22 16 13 17 14 17 22 23
20 23 22 17 17 20 16 17 15 13 10 6 7 8 10 18 17 18 20 19 18 17 16 16 16 16 15 11 8 10 21 22 21 22 22 20 15 16 18 18 19 18 19
20 22 26 18 17 18 14 11 9 8 8 8 7 8 16 15 15 15 17 17 17 16 16 16 15 14 12 7 3 6 12 18 21 21 20 20 16 17 18 19 20 20 20
23 21 24 20 16 15 13 11 9 8 8 8 8 9 19 17 16 17 18 18 18 17 16 16 15 13 12 8 7 6 9 13 17 19 19 19 16 18 18 19 19 19 19
25 21 20 21 16 17 16 11 9 9 9 8 9 9 9 13 15 17 17 16 16 16 17 17 16 13 12 10 8 8 8 11 14 13 15 17 18 18 18 18 18 18 19
25 22 20 19 16 14 14 13 10 12 9 9 9 9 10 11 12 13 15 16 16 16 17 16 15 13 11 10 9 8 8 11 11 13 12 15 17 18 19 19 20 21 21
26 23 20 18 16 16 13 13 12 10 10 10 8 9 11 12 13 15 16 16 16 16 15 15 15 13 12 10 10 8 11 20 19 18 18 18 18 17 18 19 20 21 22
27 24 25 25 19 17 15 14 16 16 16 15 14 16 15 16 16 17 17 17 16 16 15 15 14 13 11 10 10 13 21 23 23 24 24 26 25 24 25 24 24 25 25
Lifted_Index
8 8 8 8 9 9 9 9 9 9 9 8 8 7 7 8 8 8 8 9 9 8 8 8 8 7 7 7 6 6 5 4 2 1 2 4 5 7 9 10 11 12 13
8 9 9 9 9 9 9 9 10 10 10 9 9 9 9 9 9 9 9 9 9 9 9 9 8 8 7 7 7 6 6 5 3 2 3 4 6 8 9 10 12 13 15
9 10 10 10 10 10 10 10 10 10 10 10 10 10 10 10 10 10 9 9 9 9 9 9 8 8 7 7 7 7 7 6 6 5 4 5 7 9 10 12 13 16 17
10 10 10 10 10 10 10 10 10 10 10 10 10 10 10 10 10 9 9 9 9 9 9 9 9 8 8 8 8 8 8 8 7 7 6 7 9 11 13 14 16 17 18
10 10 10 10 10 10 10 10 10 10 10 10 10 10 10 10 10 10 10 9 9 9 9 10 10 10 10 10 10 10 10 9 9 8 9 10 12 14 15 16 17 17 18
10 10 10 10 10 10 10 10 10 10 10 10 10 10 10 11 11 11 11 11 10 10 10 11 11 12 12 12 13 13 13 13 12 12 12 14 15 17 17 17 17 17 16
10 10 10 10 10 10 10 10 10 10 10 11 11 11 11 12 12 13 13 13 13 12 13 13 13 14 15 15 15 16 17 18 17 17 17 17 18 18 18 18 17 16 16
10 10 10 10 10 10 10 10 11 11 11 11 11 12 12 13 14 15 16 16 16 16 16 17 17 18 18 18 18 19 20 20 20 20 20 19 19 19 19 18 17 16 15
10 10 10 10 10 10 11 11 12 12 12 12 13 14 15 16 18 19 19 19 19 19 19 20 20 20 21 21 20 20 20 21 21 21 21 20 20 19 18 17 16 15 14
10 10 10 10 11 11 11 12 12 13 13 15 16 17 18 19 20 21 21 20 20 19 20 21 21 22 22 22 21 21 21 21 21 21 21 20 19 18 18 17 16 14 13
10 10 10 11 11 12 12 13 13 14 16 17 18 18 19 20 21 21 21 21 20 19 19 20 22 22 22 22 22 22 22 21 21 20 19 18 18 17 17 17 16 15 14
10 10 10 11 12 12 13 14 15 16 17 17 17 18 19 20 21 21 21 21 21 20 20 21 22 22 23 23 23 22 22 21 20 19 17 17 16 16 16 16 16 16 15
9 10 10 11 12 13 14 15 17 17 17 17 16 17 18 19 20 21 21 21 21 21 21 21 22 22 22 22 22 22 21 20 18 17 16 16 16 16 15 15 15 15 15
9 10 11 11 13 14 16 17 17 17 17 16 16 16 17 18 19 20 21 21 21 21 21 21 21 22 22 22 21 21 20 18 17 16 15 15 15 15 15 14 14 14 13
9 10 10 12 14 16 17 17 17 17 17 17 17 17 18 18 19 20 20 21 21 21 20 20 20 20 20 20 20 19 19 18 17 16 15 15 15 14 14 14 13 12 12
9 9 10 12 14 15 16 16 17 18 18 18 19 19 19 19 20 20 20 20 21 20 19 18 18 18 19 19 19 18 18 17 17 16 15 15 14 14 13 13 12 11 10
9 9 11 13 14 15 15 15 16 17 18 18 19 20 20 20 20 20 20 20 20 19 18 17 17 18 18 18 18 18 17 17 16 16 15 15 14 14 13 12 11 10 8
9 10 11 14 15 15 15 15 16 16 16 17 18 19 20 20 20 20 20 19 18 18 18 17 17 18 18 18 18 17 17 16 16 15 15 15 14 14 13 11 10 9 8
9 10 12 14 15 15 15 15 16 16 16 17 17 18 19 19 19 19 19 18 18 17 18 18 18 18 18 18 18 17 17 16 16 15 15 15 15 14 13 11 10 9 8
9 10 13 15 15 15 15 15 16 16 16 16 17 18 18 19 18 18 18 18 18 18 18 18 19 19 19 19 18 18 17 16 16 16 15 15 15 14 13 11 10 10 9
9 10 12 14 15 15 15 15 16 16 16 16 17 18 18 18 18 18 18 18 18 18 19 19 19 19 19 19 19 18 17 17 16 16 16 15 15 14 13 12 11 11 11
9 10 11 13 14 15 15 16 16 16 16 16 17 18 18 18 18 18 18 18 18 19 19 19 19 19 20 19 19 19 18 17 17 16 16 16 15 14 13 13 12 12 12
9 9 10 11 13 14 15 15 16 16 16 16 17 17 17 18 18 18 18 18 18 19 19 19 19 19 19 20 19 19 18 18 18 17 16 16 15 14 14 13 13 12 12
8 8 9 10 11 12 13 14 15 16 16 16 16 17 17 17 18 18 18 18 18 19 19 19 19 19 19 19 19 19 19 18 18 18 17 16 15 15 14 13 13 13 12
8 8 9 9 10 11 12 13 14 15 16 16 16 16 17 17 17 17 18 18 18 18 19 19 19 18 18 18 18 18 18 18 18 18 17 16 16 15 15 14 13 13 13
8 8 9 9 9 10 11 12 13 15 16 16 16 16 17 17 17 17 18 18 18 18 18 19 19 18 17 17 17 17 17 17 17 17 17 16 16 15 15 15 14 14 13